Location: Unspecified
(0.0000°N, 0.0000°E)
Time: 21:21:20
(UTC+00:00)

N. Korean satellite - Pass Details

Date: 26 May 2023
Orbit: 364 x 379 km, 97.3° (Epoch: 04 June)

Event Time Altitude Azimuth Distance (km) Brightness Sun altitude
Rises 04:48:06 0° 29° (NNE) 2,261 10.8 -16.0°
Reaches altitude 10° 04:50:14 10° 42° (NE) 1,411 9.9 -15.5°
Maximum altitude 04:52:49 26° 101° (E) 807 8.3 -15.0°
Drops below altitude 10° 04:55:24 10° 160° (SSE) 1,417 8.9 -14.3°
Sets 04:57:33 0° 173° (S) 2,273 9.8 -13.9°
